www.pogodaiklimat.ru

Погода и климат >> Архив погоды >> Финляндия >> Муонио Саммалтунтури


ПОГОДА в Муонио Саммалтунтури

  • Прогноз погоды в Муонио Саммалтунтури
  • Монитор погоды в Муонио Саммалтунтури

АРХИВ ПОГОДЫ в Муонио Саммалтунтури

Время (UTC), дата Ветер
(напр.,м/с)
 
Видим.   Явления Облачность Т
(С)
Тd
(С)
f
(%)
Тe
(С)
Тes
(С)
Комфортность P
(гПа)
Po
(гПа)
Тmin
(С)
Tmax
(С)
R
(мм)
R24
(мм)
S
(см)
10 16.07 В 1-4
{5}
40 км в посл. час дождь н/о +9.4 +5.7 78 +9 +9 1014.5 948.5
11 16.07 В 4 40 км н/о +10.1 +5.2 72 +8 +8 1014.4 948.5
12 16.07 СВ 4-5
{7}
30 км в посл. час дождь {ливн. осадки} н/о +10.0 +5.4 73 +7 +7 1014.5 948.6
14 16.07 В 6-7
{9}
45 км н/о +11.3 +3.4 58 +9 +9 1014.0 948.4
15 16.07 В 4-6
{7}
40 км {ливн. осадки, метель} н/о +11.7 +3.0 55 +10 +10 1014.1 948.6
16 16.07 В 7 35 км н/о +10.7 +3.1 59 +8 +8 1014.4 948.6
17 16.07 В 6 45 км н/о +10.2 +2.3 58 +7 +7 1014.4 948.6
18 16.07 В 5-6
{9}
40 км {ливн. осадки, метель} н/о +10.2 +2.3 58 +7 +7 1014.6 948.7 +7.7 +12.3
19 16.07 В 5-5
{8}
50 км н/о +9.2 +2.4 62 +6 +6 1014.8 948.7
20 16.07 В 4-5
{5}
45 км н/о +8.0 +2.2 67 +5 +5 1015.0 948.6
21 16.07 В 5-6
{8}
50 км н/о +7.0 +2.7 74 +3 +3 1015.5 948.8
22 16.07 СВ 5-7
{7}
40 км н/о +6.5 +3.3 80 +2 +2 1015.9 949.1
23 16.07 СВ 6-7
{8}
21 км н/о +5.1 +2.7 84 0 0 1016.0 948.9
00 17.07 В 7-9
{11}
20 км н/о +4.6 +2.4 86 -1 -1 1016.0 948.7
01 17.07 СВ 6 13 км н/о +4.2 +3.1 93 -1 -1 1016.0 948.6
02 17.07 СВ 6 26 км н/о +4.1 +3.1 93 -2 -2 1015.7 948.3
03 17.07 В 6-7
{7}
30 км н/о +5.0 +3.8 92 -0 -0 1015.3 948.2
04 17.07 СВ 6-7
{8}
40 км н/о +5.5 +4.2 91 0 0 1015.1 948.1
05 17.07 СВ 5 35 км н/о +6.0 +4.3 89 +2 +2 1014.9 948.0
06 17.07 С 4-7
{7}
45 км н/о +6.9 +4.6 85 +3 +3 1014.5 947.9 +4.1 +10.2
07 17.07 СВ 3-4
{7}
50 км н/о +7.4 +4.5 82 +5 +5 1014.2 947.7
08 17.07 СВ 2-3
{4}
50 км н/о +7.9 +4.3 78 +6 +6 1014.3 947.9
09 17.07 СВ 1-4
{4}
50 км н/о +9.4 +4.5 71 +9 +9 1013.8 947.8
10 17.07 СВ 3 50 км н/о +9.5 +3.6 67 +7 +7 1013.7 947.7
11 17.07 СВ 4 40 км н/о +12.5 +3.7 55 +11 +11 1012.7 947.5
12 17.07 СВ 3-6
{7}
45 км н/о +12.6 +3.4 53 +11 +11 1012.4 947.2
13 17.07 В 2 35 км н/о +13.3 +3.3 51 +13 +13 1012.0 947.0
14 17.07 СВ 1 45 км н/о +13.2 +3.2 51 +14 +14 1011.9 946.8
15 17.07 ЮВ 2-3
{5}
28 км слаб. дождь н/о +11.1 +4.3 63 +10 +10 1012.3 946.8
16 17.07 ЮВ 3 50 км в посл. час морось н/о +10.9 +4.0 62 +9 +9 1012.3 946.7
17 17.07 З 2 15 км слаб. дождь н/о +10.0 +5.0 71 +9 +9 1012.8 947.0
18 17.07 Ю 3-4
{4}
50 км {ливн. осадки, дождь} н/о +11.1 +4.5 64 +9 +9 1012.5 946.9 +6.9 +13.8
19 17.07 Ю 2 50 км н/о +10.3 +4.5 67 +9 +9 1012.8 947.1
20 17.07 Ю 3 50 км н/о +10.0 +4.4 68 +8 +8 1013.0 947.2
21 17.07 Ю 4-5
{5}
50 км н/о +9.3 +4.7 73 +7 +7 1013.3 947.3
22 17.07 Ю 4-6
{6}
50 км н/о +9.1 +4.8 74 +6 +6 1013.7 947.7
23 17.07 Ю 5 50 км н/о +8.6 +4.3 74 +5 +5 1014.2 948.0
00 18.07 Ю 5-6
{6}
50 км н/о +8.3 +4.5 77 +5 +5 1014.4 948.1
01 18.07 Ю 5 50 км н/о +8.3 +4.7 78 +5 +5 1014.5 948.2
02 18.07 Ю 5 50 км н/о +9.0 +4.8 75 +6 +6 1014.6 948.4
03 18.07 Ю 3-4
{6}
50 км н/о +9.2 +4.6 73 +7 +7 1014.8 948.7
04 18.07 Ю 4 50 км н/о +9.7 +4.6 71 +7 +7 1014.9 948.9
05 18.07 Ю 4 50 км н/о +10.2 +5.1 71 +8 +8 1015.0 949.1
06 18.07 Ю 3-4
{5}
40 км н/о +11.8 +6.4 69 +10 +10 1014.8 949.3 +8.2 +11.8
07 18.07 ЮВ 5 35 км н/о +12.3 +5.0 61 +10 +10 1014.7 949.3
08 18.07 Ю 4 35 км н/о +13.5 +5.0 56 +12 +12 1014.5 949.4
09 18.07 ЮВ 4-7
{8}
35 км н/о +13.5 +3.2 50 +12 +12 1014.7 949.5
10 18.07 ЮВ 5 50 км н/о +13.7 +2.9 48 +12 +12 1014.7 949.6
11 18.07 В 4 40 км н/о +14.8 +3.0 45 +14 +14 1014.5 949.7
12 18.07 В 4-6
{7}
45 км н/о +14.9 +3.4 46 +14 +14 1014.5 949.7
13 18.07 ЮВ 3 45 км н/о +14.9 +2.6 43 +14 +14 1014.4 949.6
14 18.07 В 2 50 км н/о +16.0 +3.1 42 +16 +16 1014.3 949.7
15 18.07 В 5-6
{7}
45 км н/о +15.0 +3.7 47 +14 +14 1014.5 949.7
16 18.07 В 3 50 км н/о +15.1 +4.0 47 +15 +15 1014.5 949.7
17 18.07 ЮВ 2 50 км н/о +14.9 +3.8 47 +15 +15 1014.4 949.6
18 18.07 В 3-4
{10}
45 км в посл. час морось {ливн. осадки, дождь} н/о +13.8 +4.9 55 +13 +13 1014.8 949.7 +11.5 +16.4
19 18.07 В 7 50 км н/о +12.5 +7.6 72 +10 +10 1015.1 949.7
20 18.07 ЮВ 6-7
{9}
50 км н/о +11.5 +8.3 81 +9 +9 1015.4 949.8
21 18.07 В 5-6
{7}
45 км {метель} н/о +10.2 +8.2 87 +7 +7 1015.8 949.9
22 18.07 В 5-5
{6}
30 км н/о +9.6 +8.7 94 +6 +6 1016.1 949.9
23 18.07 В 5 200 м туман н/о +9.1 +8.9 99 +5 +5 1016.1 949.9
00 19.07 ЮВ 3-4
{5}
200 м туман {ливн. осадки, дождь} н/о +8.8 +8.7 99 +6 +6 1016.2 949.9
01 19.07 В 4 100 м слаб. ливневой дождь н/о +9.1 +9.0 99 +6 +6 1016.1 949.9
02 19.07 В 3-3
{6}
17 км слаб. дождь н/о +8.9 +8.7 99 +6 +6 1016.0 949.8
03 19.07 СВ 4-5
{5}
5000 м слаб. дождь н/о +8.9 +8.6 98 +6 +6 1015.7 949.5
04 19.07 В 5 800 м туман н/о +9.4 +9.1 98 +6 +6 1015.5 949.3
05 19.07 СВ 4 2700 м в посл. час туман н/о +9.8 +9.5 98 +7 +7 1015.3 949.3
06 19.07 СВ 4-5
{6}
35 км {ливн. осадки, дождь} н/о +10.4 +9.4 94 +8 +8 1015.0 949.2 +8.7 +14.0
07 19.07 В 6 30 км н/о +10.8 +9.6 92 +8 +8 1014.8 949.0
08 19.07 В 3 40 км н/о +11.4 +9.5 88 +10 +10 1014.6 949.0
09 19.07 СВ 2-4
{6}
45 км н/о +12.9 +9.2 78 +12 +12 1014.0 948.8
10 19.07 В 4 40 км н/о +12.0 +9.0 82 +10 +10 1014.3 948.8
11 19.07 В 2 45 км н/о +12.9 +8.3 74 +12 +12 1014.1 948.8
12 19.07 В 2-3
{5}
35 км н/о +17.1 +7.8 54 +17 +17 1013.0 948.7
13 19.07 Ю 2 45 км н/о +14.0 +7.6 65 +14 +14 1013.6 948.6
14 19.07 В 2-4
{4}
45 км н/о +15.7 +8.0 60 +16 +16 1013.0 948.4
15 19.07 В 3-5
{5}
40 км н/о +14.7 +8.8 68 +14 +14 1013.2 948.4
16 19.07 В 3 50 км н/о +14.9 +8.6 66 +14 +14 1012.9 948.2
17 19.07 В 3 30 км н/о +16.0 +9.2 64 +16 +16 1012.5 948.1
18 19.07 ЮВ 3-3
{4}
40 км н/о +15.1 +8.4 64 +14 +14 1012.8 948.1 +10.3 +17.3
19 19.07 ЮВ 3 50 км н/о +14.4 +7.7 64 +14 +14 1013.0 948.2
20 19.07 ЮВ 3-4
{4}
45 км н/о +13.7 +7.8 68 +13 +13 1013.3 948.2
21 19.07 ЮВ 4-5
{5}
50 км н/о +12.8 +7.8 72 +11 +11 1013.7 948.4
22 19.07 ЮВ 3 50 км н/о +12.5 +8.3 76 +11 +11 1013.8 948.5
23 19.07 Ю 5-6
{6}
50 км н/о +12.4 +8.1 75 +10 +10 1013.9 948.5
00 20.07 Ю 5-6
{6}
50 км н/о +12.3 +7.9 74 +10 +10 1013.9 948.6
01 20.07 Ю 5-7
{7}
50 км н/о +11.8 +7.9 77 +9 +9 1014.2 948.7
02 20.07 Ю 5-5
{7}
50 км н/о +11.7 +8.3 80 +9 +9 1014.0 948.5
03 20.07 Ю 5-6
{6}
50 км н/о +12.4 +7.8 74 +10 +10 1013.7 948.4
04 20.07 Ю 4-6
{6}
50 км н/о +13.1 +7.7 70 +11 +11 1013.7 948.5
05 20.07 Ю 4 50 км н/о +13.9 +8.1 68 +13 +13 1013.5 948.5
06 20.07 Ю 4 35 км н/о +14.5 +8.9 69 +13 +13 1013.5 948.6 +11.6 +15.1
07 20.07 Ю 4 45 км н/о +15.9 +8.5 61 +15 +15 1013.4 948.8
08 20.07 Ю 4-6
{7}
45 км н/о +16.6 +8.7 60 +16 +16 1013.3 948.9
09 20.07 Ю 4-7
{8}
35 км н/о +17.4 +6.9 50 +17 +17 1013.0 948.8
10 20.07 Ю 5 35 км н/о +18.0 +8.0 52 +18 +18 1012.9 948.8
11 20.07 Ю 4-7
{9}
40 км н/о +18.8 +7.3 47 +19 +19 1012.8 948.9
12 20.07 Ю 4-6
{7}
40 км н/о +19.7 +7.2 44 +21 +21 комфорт 1012.6 948.9
13 20.07 Ю 5 45 км н/о +19.8 +7.4 45 +21 +21 комфорт 1012.4 948.8
14 20.07 Ю 4 40 км н/о +20.5 +7.6 43 +22 +22 комфорт 1012.2 948.7
15 20.07 ЮВ 3-5
{6}
40 км н/о +19.9 +7.5 45 +21 +21 комфорт 1012.4 948.7
16 20.07 ЮВ 5 50 км н/о +19.3 +7.3 46 +20 +20 1012.6 948.8
17 20.07 ЮВ 6 50 км н/о +18.5 +7.8 50 +18 +18 1012.9 948.9
18 20.07 ЮЗ 5-7
{8}
40 км н/о +16.9 +10.3 65 +16 +16 1013.4 949.1 +14.5 +20.9
19 20.07 Ю 5 50 км н/о +16.5 +9.9 65 +16 +16 1013.5 949.1
20 20.07 ЮЗ 4-5
{5}
45 км н/о +15.9 +11.0 73 +15 +15 1013.7 949.2
21 20.07 ЮЗ 5-6
{6}
50 км н/о +15.2 +10.5 74 +14 +14 1014.2 949.5
22 20.07 ЮЗ 5 50 км н/о +14.9 +10.4 74 +13 +13 1014.5 949.6
23 20.07 ЮЗ 5 50 км н/о +14.0 +11.0 82 +12 +12 1014.7 949.7
00 21.07 ЮЗ 5-7
{7}
50 км н/о +13.7 +10.5 81 +12 +12 1014.8 949.7
01 21.07 ЮЗ 5-6
{6}
50 км н/о +13.7 +10.5 81 +12 +12 1014.6 949.5
02 21.07 ЮЗ 5 45 км н/о +13.2 +10.5 84 +11 +11 1014.8 949.5
03 21.07 ЮЗ 5-6
{6}
40 км н/о +13.2 +10.7 85 +11 +11 1014.9 949.7
04 21.07 ЮЗ 4 45 км н/о +14.0 +10.2 78 +13 +13 1014.9 949.8
05 21.07 ЮЗ 3 45 км н/о +14.6 +9.9 73 +14 +14 1014.7 949.8
06 21.07 Ю 4-5
{6}
40 км н/о +15.5 +10.1 70 +15 +15 1014.5 949.8 +13.0 +16.9
07 21.07 Ю 4 40 км н/о +16.6 +10.0 65 +16 +16 1014.5 950.0
08 21.07 Ю 5 40 км н/о +17.6 +10.2 62 +17 +17 1014.2 950.0
09 21.07 Ю 5-7
{9}
45 км н/о +18.0 +10.3 61 +18 +18 1014.2 950.0
10 21.07 Ю 6 30 км н/о +19.4 +10.4 56 +20 +20 1013.8 950.0
11 21.07 Ю 6 40 км н/о +19.2 +11.5 61 +20 +20 1013.9 950.0
12 21.07 Ю 5-7
{9}
40 км н/о +20.2 +11.2 56 +22 +22 комфорт 1013.7 950.0
13 21.07 Ю 5 35 км слаб. дождь н/о +19.7 +11.6 60 +21 +21 комфорт 1013.6 949.9
14 21.07 ЮЗ 5 40 км в посл. час дождь н/о +21.3 +10.6 50 +23 +23 комфорт 1013.0 949.6
15 21.07 Ю 5-7
{10}
45 км {ливн. осадки, дождь} н/о +19.6 +11.1 58 +21 +21 комфорт 1013.2 949.4
16 21.07 ЮВ 5 45 км слаб. ливневой дождь н/о +18.1 +11.6 66 +18 +18 1013.6 949.5
17 21.07 В 4-6
{8}
45 км в посл. час дождь н/о +16.4 +12.7 79 +16 +16 1014.4 949.9
18 21.07 ЮВ 4-5
{5}
45 км {ливн. осадки, дождь} н/о +17.0 +10.8 67 +17 +17 1013.9 949.5 +15.5 +22.0
19 21.07 Ю 6-9
{9}
45 км н/о +18.1 +12.0 68 +18 +18 1013.7 949.6
20 21.07 З 3-4
{12}
23 км слаб. дождь н/о +14.2 +11.7 85 +13 +13 1015.4 950.4
21 21.07 ЮЗ 4-6
{6}
50 км в посл. час дождь {ливн. осадки} н/о +16.8 +9.6 62 +16 +16 1014.4 949.9
22 21.07 Ю 5-7
{7}
50 км н/о +16.1 +11.1 72 +15 +15 1014.4 949.9
23 21.07 Ю 6-8
{8}
50 км н/о +15.2 +10.8 75 +14 +14 1014.8 950.0
00 22.07 Ю 7-8
{9}
45 км {ливн. осадки, дождь} н/о +14.4 +9.9 74 +12 +12 1014.8 949.9
01 22.07 Ю 7 50 км н/о +14.0 +9.4 74 +12 +12 1014.7 949.7
02 22.07 Ю 6-8
{8}
50 км н/о +13.6 +9.1 74 +11 +11 1015.0 949.8
03 22.07 Ю 6-7
{8}
45 км н/о +13.4 +9.0 75 +11 +11 1014.9 949.7
04 22.07 Ю 6-7
{7}
45 км н/о +13.5 +9.2 75 +11 +11 1014.9 949.7
05 22.07 ЮЗ 4 45 км н/о +14.8 +9.8 72 +14 +14 1014.6 949.7
06 22.07 Ю 4-6
{6}
40 км н/о +16.5 +10.5 68 +16 +16 1014.3 949.8 +13.3 +18.3
07 22.07 Ю 5 35 км н/о +17.7 +9.9 60 +17 +17 1014.1 949.9
08 22.07 ЮЗ 7 30 км н/о +19.5 +8.0 47 +20 +20 1013.5 949.7
09 22.07 ЮЗ 7-12
{12}
30 км н/о +20.1 +8.9 48 +21 +21 комфорт 1013.4 949.8
10 22.07 ЮЗ 9 35 км н/о +20.9 +9.3 47 +22 +22 комфорт 1013.4 949.9
11 22.07 ЮЗ 9 30 км н/о +21.7 +9.4 45 +23 +23 комфорт 1013.3 950.0
12 22.07 ЮЗ 8-10
{12}
45 км н/о +22.2 +8.8 42 +24 +24 комфорт 1012.9 949.7
13 22.07 ЮЗ 8 40 км н/о +22.5 +8.5 41 +24 +24 комфорт 1012.8 949.7
14 22.07 ЮЗ 8 45 км н/о +22.8 +8.8 41 +24 +24 комфорт 1012.7 949.6
15 22.07 З 7-10
{11}
22 км н/о +23.4 +9.0 40 +25 +25 комфорт 1012.2 949.4
16 22.07 ЮЗ 7 40 км н/о +22.4 +10.1 46 +24 +24 комфорт 1012.7 949.6
17 22.07 Ю 7 40 км слаб. ливневой дождь н/о +21.0 +10.2 50 +23 +23 комфорт 1013.1 949.6
18 22.07 Ю 4-6
{7}
45 км {ливн. осадки, дождь} н/о +20.1 +10.1 53 +22 +22 комфорт 1013.3 949.7 +16.5 +23.7
20 22.07 Ю 5-7
{7}
50 км н/о +19.7 +10.0 53 +21 +21 комфорт 1013.6 949.8
21 22.07 Ю 5-7
{9}
50 км н/о +19.1 +9.5 54 +20 +20 1014.0 950.1
22 22.07 ЮЗ 6 50 км н/о +18.5 +8.8 53 +18 +18 1014.2 950.2
23 22.07 ЮЗ 5 50 км н/о +18.2 +8.0 51 +18 +18 1014.5 950.4
00 23.07 ЮЗ 5-6
{7}
50 км н/о +17.7 +8.3 54 +17 +17 1014.7 950.5
01 23.07 ЮЗ 5 30 км н/о +17.4 +8.2 55 +17 +17 1014.9 950.5
02 23.07 ЮЗ 5-7
{7}
45 км н/о +17.4 +8.4 55 +17 +17 1015.0 950.7
03 23.07 ЮЗ 5-7
{7}
45 км н/о +17.8 +7.9 52 +17 +17 1014.9 950.6
04 23.07 ЮЗ 4 50 км н/о +17.5 +8.5 55 +17 +17 1014.9 950.6
05 23.07 ЮЗ 4 50 км н/о +18.3 +8.8 54 +18 +18 1014.9 950.8
06 23.07 Ю 4-5
{5}
35 км н/о +19.3 +9.2 52 +20 +20 1014.9 951.0 +17.0 +20.6
07 23.07 ЮЗ 4 35 км н/о +20.3 +8.8 48 +22 +22 комфорт 1014.7 951.0
08 23.07 Ю 4 35 км н/о +21.5 +8.8 44 +23 +23 комфорт 1014.7 951.2

 

Местоположение метеостанции Муонио Саммалтунтури (Финляндия): широта 67.97 долгота 24.12 высота над уровнем моря 565 м.

В архиве по умолчанию представлена погода в Муонио Саммалтунтури за последнюю неделю. Архивные данные за месяц целиком и за предыдущие месяцы, начиная с января 2011 года, Вы можете получить, выбрав интересующий диапазон дат из раскрывающегося списка и нажав кнопку "Ввод!".


*Определитесь, кто Вы:
робот инопланетянин человек

Внимание! Время в таблицах - всемирное. Для получения местного времени необходимо прибавить поправку, которая равна 1 ч.

Смотрите также архив погоды в соседних городах и на ближайших метеорологических станциях:

Погода в Киттиля Ломполонвуома (Финляндия) (5 км)
Погода в Киттила Кенттарова (Финляндия) (5 км)
Погода в Киттила Маторова (Финляндия) (6 км)
Погода в Муонио Лаукукеро (Финляндия) (11 км)
Погода в Муонио Аламуонио (Финляндия) (18 км)
Погода в Киттила Левитунтури (Финляндия) (37 км)
Погода в Киттиля (Финляндия) (43 км)
Погода в Киттиля (Финляндия) (48 км)
Погода в Паркаломполо (Швеция) (60 км)
Погода в Киттила Покка (Финляндия) (72 км)

Пояснения к столбцам:

Ветер - указаны скорость ветра в м/с - средняя за 10 мин, порывы в срок и между сроками (в фигурных скобках) и направление, откуда дует ветер: С - северный, СВ - северо-восточный, В - восточный, ЮВ - юго-восточный, Ю - южный, ЮЗ - юго-западный, З - западный, СЗ - северо-западный.
Видимость - горизонтальная дальность видимости в метрах или километрах. При видимости от 1 до 10 км при отсутствии осадков обычно наблюдается дымка, при ухудшении видимости до 1 км и менее - туман. В сухую погоду видимость может ухудшаться дымом, пылью или мглою.
Явления - указаны атмосферные явления, наблюдавшиеся в срок или в последний час перед сроком; фигурными скобками обозначены явления, наблюдавшиеся между сроками (за 1-3 часа до срока); квадратными скобками обозначены град или гололедные отложения с указанием их диаметра в мм.
Облачность - указаны через наклонную черту общая и нижняя облачность в баллах и высота нижней границы облаков в метрах; квадратными скобками обозначены формы облаков: Ci - перистые, Cs - перисто-слоистые, Cc - перисто-кучевые, Ac - высококучевые, As - высокослоистые, Sc - слоисто-кучевые, Ns - слоисто-дождевые, Cu - кучевые, Cb - кучево-дождевые. Подробнее классификацию облаков см. в Атласе облаков (PDF).
T - Температура воздуха - температура, измеренная на высоте 2 м над землей.
Td - Температура точки росы - температура, при понижении до которой содержащийся в воздухе водяной пар достигнет насыщения.
f - Относительная влажность воздуха - влажноcть воздуха, измеренная на высоте 2 м над землей.
Te - Эффективная температура - температура, которую ощущает одетый по сезону человек в тени. Характеристика душности погоды. При расчете учитывается влияние влажности воздуха и скорости ветра на теплоощущения человека.
Tes - Эффективная температура на солнце - температура, которую ощущает человек, с поправкой на солнечный нагрев. Характеристика знойности погоды. Зависит от высоты солнца над горизонтом, облачности и скорости ветра. Ночью, в пасмурную погоду, а также при ветре 12 м/с и более поправка равна нулю.
P - Атмосферное давление - приведенное к уровню моря атмосферное давление.
Po - Атмосферное давление - измеренное на уровне метеостанции атмосферное давление.
Tmin - Минимальная температура - минимум температуры воздуха на высоте 2 м над землей.
Tmax - Максимальная температура - максимум температуры воздуха на высоте 2 м над землей.
R - Количество осадков - Количество выпавших осадков за период времени, мм. При наведении курсора мыши на число - период времени, за который выпало указанное количество осадков.
R24 - Количество осадков - Количество выпавших осадков за 24 часа, мм.
S - Снежный покров - Высота снежного покрова, см. При наведении курсора мыши на число - состояние снежного покрова и степень покрытия местности в баллах.